Location: Kazanice
(53.5528°N, 19.7258°E)
Time: 21:06:56
(UTC+01:00)

ISS - Pass Details

Date: 26 January 2019
Orbit: 403 x 411 km, 51.6° (Epoch: 23 February)

Event Time Altitude Azimuth Distance (km) Brightness Sun altitude
Rises 19:11:39 0° 250° (WSW) 2,335 1.1 -26.4°
Reaches altitude 10° 19:13:46 10° 245° (WSW) 1,477 -0.2 -26.7°
Enters shadow 19:14:50 19° 239° (WSW) 1,061 -1.2 -26.9°
